Home > Time Zones > World Clock > Weather > Latvia > Riga > Past weeks

Flag for Latvia Weather past 2 weeks in Riga, Latvia

Now
54 °F

Passing clouds.


Feels Like: 53 °F
Forecast: 53 / 67 °F
Wind: 5 mph from Southwest

Location: Riga Airport

Current Time: Sep 3, 2015 at 3:08:34 AM

Latest Report: Sep 3, 2015 at 2:20 AM


Visibility: N/A

Pressure: 29.89 "Hg

Humidity: 100%

Dew point: 54 °F

Location of RigaLocation

Historic Weather in Riga — Graph

°F

Riga temperature yesterday

Maximum temperature yesterday: 63 °F (at 12:20 PM)
Minimum temperature yesterday: 55 °F (at 11:20 PM)
Average temperature yesterday: 60 °F

Past Weeks' High & Low Weather Summary

 TemperatureHumidityPressure
High88 °F (Aug 25, 3:50 PM)100% (Aug 19, 5:20 AM)30.45 "Hg (Aug 19, 5:20 AM)
Low43 °F (Aug 19, 5:20 AM)25% (Aug 25, 3:50 PM)29.68 "Hg (Sep 2, 4:20 AM)
Average63 °F74%30.09 "Hg
* Reported Aug 19 1:20 AM — Sep 3 1:50 AM, Riga, Weather by CustomWeather, © 2015

Note: Actual official high and low records may vary slightly from our data, if they occured in-between our weather recording intervals... More about our weather records

Advertising

Riga weather history for previous 24 hours

 ConditionsComfort  
Time TempWeatherWind HumidityBarometerVisibility
1:50 AM
Thu, Sep 3
54 °FPassing clouds.3 mph100%29.86 "HgN/A
12:20 AM54 °FPassing clouds.3 mph100%29.86 "HgN/A
11:50 PM
Wed, Sep 2
55 °FPassing clouds.5 mph94%29.86 "HgN/A
11:20 PM55 °FPassing clouds.3 mph100%29.86 "HgN/A
10:50 PM57 °FClear.2 mph94%29.86 "Hg10 mi
10:20 PM57 °FPassing clouds.3 mph100%29.86 "HgN/A
9:50 PM59 °FPassing clouds.3 mph94%29.86 "HgN/A
9:20 PM59 °FClear.2 mph100%29.83 "Hg10 mi
8:50 PM59 °FPassing clouds.3 mph100%29.83 "HgN/A
8:20 PM61 °FPassing clouds.3 mph94%29.83 "HgN/A
7:50 PM63 °FOvercast.3 mph94%29.80 "HgN/A
7:20 PM63 °FOvercast.2 mph94%29.80 "HgN/A
6:50 PM63 °FOvercast.3 mph94%29.80 "HgN/A
6:20 PM61 °FLight rain. Overcast.2 mph100%29.80 "HgN/A
5:50 PM61 °FLow clouds.2 mph100%29.77 "HgN/A
5:20 PM63 °FLight rain. Cloudy.5 mph94%29.77 "Hg4 mi
4:50 PM63 °FLight rain. Fog.2 mph100%29.77 "Hg2 mi
4:20 PM63 °FLight rain. Fog.3 mph100%29.77 "Hg3 mi
3:50 PM63 °FLight rain. Fog.3 mph100%29.77 "Hg2 mi
3:20 PM63 °FRain. Fog.6 mph100%29.77 "Hg2 mi
2:50 PM63 °FLow clouds.7 mph100%29.77 "HgN/A
2:20 PM63 °FLight rain. Low clouds.7 mph100%29.77 "HgN/A
1:50 PM63 °FLight rain. Low clouds.6 mph94%29.77 "Hg6 mi
1:20 PM63 °FLight rain. Low clouds.7 mph94%29.77 "HgN/A
12:50 PM63 °FLight rain. Low clouds.8 mph94%29.74 "HgN/A
12:20 PM63 °FLow clouds.6 mph94%29.74 "HgN/A
11:50 AM61 °FLow clouds.3 mph100%29.74 "HgN/A
11:20 AM61 °FLow clouds.3 mph100%29.74 "HgN/A
10:50 AM61 °FLow clouds.5 mph100%29.74 "Hg4 mi
10:20 AM59 °FFog.7 mph100%29.74 "Hg3 mi
9:50 AM59 °FDrizzle. Fog.5 mph100%29.74 "Hg1 mi
9:20 AM59 °FDrizzle. Mostly cloudy.7 mph100%29.74 "Hg1 mi
8:50 AM59 °FDrizzle. Fog.6 mph100%29.74 "Hg1 mi
8:20 AM59 °FDrizzle. Fog.5 mph100%29.71 "Hg1 mi
7:50 AM59 °FFog.3 mph100%29.71 "Hg1 mi
7:20 AM59 °FFog.5 mph100%29.71 "Hg1 mi
6:50 AM59 °FFog.7 mph100%29.68 "Hg1 mi
6:20 AM59 °FFog.7 mph100%29.68 "Hg2 mi
5:50 AM59 °FFog.6 mph100%29.68 "Hg1 mi
5:20 AM59 °FFog.5 mph100%29.71 "Hg2 mi
4:50 AM59 °FFog.5 mph100%29.71 "Hg2 mi
4:20 AM59 °FFog.5 mph100%29.68 "Hg2 mi
3:50 AM59 °FLow clouds.6 mph100%29.71 "Hg4 mi
3:20 AM59 °FLow clouds.5 mph100%29.71 "Hg4 mi
Weather by CustomWeather, © 2015

See weather overviewHow to use our weather pages